Current Version              Previous Version:    01  02  03  04  05  06  07  08  09  10  11  12  13  14  15  16  17  18  19  20  21  22  23  24  25  26  27  28  29  30  
   31  32  33  34  35  36  37  38  39  40  41  42  43  44  45  46  47  48  49  50  51  52  53  54  55  56  57  58  59  60  

[Printable]
660
ASUS44 KLUB 191710
RWRTX
WEST TEXAS WEATHER ROUNDUP
NATIONAL WEATHER SERVICE LUBBOCK TX
1100 AM CST FRI DEC 19 2014

NOTE: "FAIR" INDICATES FEW OR NO CLOUDS BELOW 12,000 FEET WITH NO
SIGNIFICANT WEATHER AND/OR OBSTRUCTIONS TO VISIBILITY.

TXZ004-006>008-010-012-014-016-OKZ002-191800-
TEXAS PANHANDLE/OKLAHOMA PANHANDLE

CITY           SKY/WX    TMP DP  RH WIND       PRES   REMARKS
AMARILLO       FOG       37  36  96 S9        30.18S VSB 1/4 WCI  30
BORGER         CLOUDY    39  34  82 SE5       30.19R HAZE
CANADIAN       DRIZZLE   40  39  97 S6        30.21S
DALHART        CLOUDY    36  32  85 SW8       30.17S FOG     WCI  30
DUMAS          CLOUDY    34  32  92 SW7       30.17S FOG     WCI  28
GUYMON         CLOUDY    36  32  85 SW6       30.18R WCI  31
HEREFORD       CLOUDY    39  38  97 S5        30.18R FOG
PAMPA          CLOUDY    37  36  94 S7        30.19S FOG     WCI  32
PERRYTON       CLOUDY    39  35  84 S3        30.19S
$$

TXZ026-029-035-045-048-191800-
SOUTHERN PANHANDLE/SOUTH PLAINS/ROLLING PLAINS

CITY           SKY/WX    TMP DP  RH WIND       PRES   REMARKS
CHILDRESS      CLOUDY    42  38  85 CALM      30.24R
SEMINOLE       CLOUDY    38  38  99 CALM      30.20S FOG
LUBBOCK        FOG       37  37 100 S6        30.19R VSB 1/2 WCI  32
PLAINVIEW      CLOUDY    37  37  97 S6        30.18S FOG     WCI  33
SNYDER         CLOUDY    40  37  86 CALM      30.22R
$$

TXZ052-054-060>062-072-078-127-140-154-169-191800-
PERMIAN BASIN/CONCHO VALLEY/BIG COUNTRY/EDWARDS PLATEAU

CITY           SKY/WX    TMP DP  RH WIND       PRES   REMARKS
ABILENE        CLOUDY    45  41  86 N3        30.20S
BIG SPRING     CLOUDY    43  40  88 CALM      30.23R
BRADY          CLOUDY    46  43  87 NE7       30.17R
BROWNWOOD      CLOUDY    46  43  87 NE3       30.20R
JUNCTION       CLOUDY    50  45  83 NE7       30.16R
MIDLAND        CLOUDY    42  39  89 CALM      30.19S
ODESSA         CLOUDY    42  32  67 NE3       30.19S HAZE
SAN ANGELO     CLOUDY    46  43  89 NE7       30.20R
SONORA         MOSUNNY   52  45  76 NE9       30.20F
SWEETWATER     CLOUDY    43  40  88 CALM      30.23R
WINK           CLOUDY    41  36  82 NE6       30.19S HAZE
$$

TXZ055-058-074-075-080-082-191800-
FAR WEST/SOUTHWEST MOUNTAINS/TRANS PECOS

CITY           SKY/WX    TMP DP  RH WIND       PRES   REMARKS
ALPINE         SUNNY     54  31  42 CALM      30.25R
DRYDEN           N/A     57  42  57 VRB3      30.16R
EL PASO        MOSUNNY   46  39  76 VRB3      30.23R
FORT STOCKTON  SUNNY     54  36  50 W8        30.18S
MARFA          SUNNY     52  32  46 W9        30.23R
PECOS          SUNNY     50  38  63 W5        30.20R
PRESIDIO       FAIR      54  35  48 W3        30.21S
$$

TXZ014-016-019-021>030-083-191800
TEXAS TECH WEST TEXAS MESONET/TEXAS PANHANDLE/NORTHERN SOUTH PLAINS

CITY           SKY/WX    TMP DP  RH WIND       PRES   REMARKS
ABERNATHY 5ENE   N/A     37  37  98 S5        30.20S WCI  33
AMARILLO 9NNE    N/A     38  37  95 S3        30.19R
AMARILLO 7SSE    N/A     37  36  99 S6        30.19R WCI  32
AMHERST 1NE      N/A     37  37  99 S7        30.18S WCI  32
BOOTLEG 11WNW    N/A     35  34  97 NW3       30.18R
CANADIAN 6E      N/A     38  38  99 S5        30.20S WCI  34
CAPROCK CYN SP   N/A     37  37 100 S3        30.23R
CHILDRESS 2NNE   N/A     40  39  97 NE2       30.23R
CLARENDON 2WSW   N/A     36  35  96 S6        30.22R WCI  32
CLAUDE 12SW      N/A     35  35 100 SE8       30.19S WCI  29
DIMMITT 2NE      N/A     37  36  97 SE8       30.17S WCI  31
FLOYDADA 2NNE    N/A     36  36  99 SW3       30.20R
FRIONA 2NE       N/A     37  36  94 S5        30.18R WCI  33
GOODLETT 3W      N/A     41  39  93 N5        30.23R
HART 3N          N/A     37  37  99 S7        30.18S WCI  32
HEREFORD 2NW     N/A     37  35  92 SE5       30.17R WCI  34
MCLEAN 1E        N/A     36  36  99 S7        30.19R WCI  31
MEMPHIS 1NE      N/A     40  37  89 E1        30.24R
MULESHOE 2SSW    N/A     39  37  95 S3        30.17S
OLTON 6S       LGT RAIN  38  36  94 S6        30.19S WCI  33
PALO DURO SP     N/A     37  36  96 SE5       30.20S WCI  33
PAMPA 2E         N/A     37  36  99 S6        30.18S WCI  32
PLAINVIEW 1S     N/A     37  37  99 SE6       30.19S WCI  32
SILVERTON 7ESE   N/A     37  36  99 SE6       30.21R WCI  32
TULIA 2ENE       N/A     36  36  99 SE8       30.19S WCI  30
TURKEY 2WSW      N/A     39  38  96 SE5       30.22R
UMBARGER 3NNE    N/A     36  36  99 S5        30.18S WCI  32
$$

TXZ033>036-039>041-045>048-191800
TEXAS TECH WEST TEXAS MESONET/SOUTH PLAINS

CITY           SKY/WX    TMP DP  RH WIND       PRES   REMARKS
AIKEN 3WSW       N/A     37  37  99 S7        30.21S WCI  32
ANTON 6SSW       N/A     37  37  98 S5        30.19S WCI  33
BROWNFIELD 2S    N/A     37  36  95 S3        30.19S
DENVR CTY 7WNW   N/A     36  35  99 CALM      30.19R
GAIL 2ESE        N/A     41  36  84 CALM      30.20S
LAMESA 2SE       N/A     39  38  96 SE1       30.20S
LEVELLAND 4S     N/A     37  35  94 S3        30.19R
LUBBOCK 3WNW     N/A     38  37  97 S5        30.20R WCI  34
MORTON 1ENE      N/A     37  37  99 S6        30.17F WCI  33
ODONNELL 1N      N/A     38  36  92 S3        30.19S
PLAINS 3N        N/A     37  36  98 SW3       30.18S
RALLS 1SE        N/A     37  37  99 SE2       30.21S
REESE CENTER     N/A     36  36  98 S3        30.20R
SEAGRAVES 1SW    N/A     37  37  98 S3        30.19S
SEMINOLE 2NNE    N/A     38  37  97 W3        30.19S
SLATON 2NE       N/A     37  37  98 SE3       30.20S
SNYDER 3E        N/A     42  38  86 N1        30.20S
SUNDOWN 8SW      N/A     37  36  98 S6        30.18S WCI  32
TAHOKA 3NNE      N/A     39  36  91 S3        30.19R
WOLFFORTH 6SSW   N/A     38  37  99 S3        30.19S
$$

TXZ031-032-036>038-042>044-191800-
TEXAS TECH WEST TEXAS MESONET/ROLLING PLAINS

CITY           SKY/WX    TMP DP  RH WIND       PRES   REMARKS
ASPERMONT 3NE    N/A     44  39  82 N1        30.22S
FLUVANNA 3WNW    N/A     39  36  89 SW1       30.20S
GRAHAM 5SSW      N/A     38  36  92 S2        30.19S
GUTHRIE 10WSW    N/A     42  38  86 SE1       30.22R
HASKELL 1NW      N/A     44  39  81 N2        30.21S
JAYTON 1SSE      N/A     41  39  90 CALM      30.22S
KNOX CITY 3NW    N/A     45  38  76 NE1       30.23S
LK A HENRY 1NW   N/A     41  37  85 E1        30.21S
NORTHFIELD 1S    N/A     40  39  95 SE1       30.23R
ODELL 4ENE       N/A     42  40  92 NE3       30.24R
PADUCAH 10SW     N/A     40  39  96 SE3       30.22S
POST 1NE         N/A     40  36  86 E2        30.20F
RRING SPRGS 3N   N/A     39  38  99 S5        30.21S
SEYMOUR 3NW      N/A     46  41  84 N5        30.22S
SPUR 1W          N/A     40  38  92 SW3       30.21S
WHITE RVR 6NE    N/A     39  36  88 SE1       30.20S
$$

TXZ052-054-060>062-072-078-127-140-154-169-191800-
TEXAS TECH WEST TEXAS MESONET/PERMIAN BASIN/
CONCHO VALLEY/BIG COUNTRY/EDWARDS PLATEAU

CITY           SKY/WX    TMP DP  RH WIND       PRES   REMARKS
COYANOSA 2N      N/A     49  37  63 NW1       30.20S
JUNCTION 1SSW    N/A     50  45  84 NE5       30.17S
MERTZON 3NNE     N/A     43  42  97 N3        30.21R
SAN ANGELO 7NW   N/A     46  40  80 NE5       30.20S
STRLNG CT 4WSW   N/A     44  40  86 E3        30.20S
ST LAWRNCE 5SW   N/A     42  41  99 NE1       30.19S
SWEETWATR 11SW   N/A     42  39  89 CALM      30.20S
WALL 1E          N/A     46  42  86 N5        30.20R
$$

TXZ055-058-074-075-080-082-191800-
TEXAS TECH WEST TEXAS MESONET/FAR WEST/SOUTHWEST MOUNTAINS/TRANS PECOS

CITY           SKY/WX    TMP DP  RH WIND       PRES   REMARKS
PRSMN GAP BBNP   N/A     56  35  46 S3        30.19R
$$